RH
35 29 22 16 10 8 8 8 8 8 7 7 8 10 14 17 18 21 26 33 44 56 65 71 73 71 69 66 63 60 53 45 38 33 32 31 30 27 25 24 22 21 20 19 19 18 16 18 29 50 71 85 91 91 91 93 97 100 101 100 100 100 99 100 100 100 100 100 100 98 97 99 101 96
49 44 37 29 19 11 8 8 8 8 7 7 7 7 8 11 14 17 20 24 31 38 48 58 67 71 70 68 65 62 59 55 50 44 38 35 34 33 30 27 24 23 22 21 19 19 19 17 16 19 31 49 66 79 88 94 96 98 99 98 99 101 101 100 100 100 100 101 100 97 97 99 100 96
64 58 51 44 35 23 13 8 8 8 8 8 7 7 7 7 9 12 14 18 22 27 33 41 51 61 66 67 66 65 62 59 58 54 48 43 39 37 35 32 29 26 24 23 22 20 19 19 19 17 16 19 29 41 57 74 86 92 95 94 95 97 99 99 101 100 99 101 101 98 98 100 99 97
72 68 62 57 50 40 27 15 9 8 8 8 8 8 8 7 7 8 10 13 16 19 22 28 35 45 55 60 63 65 65 64 62 58 54 50 47 43 40 37 34 31 28 25 23 22 21 20 19 19 19 17 17 18 23 34 47 61 73 82 89 92 92 93 98 101 100 100 100 100 100 100 100 99
75 73 71 67 62 56 46 32 20 11 8 8 8 8 8 7 7 7 7 9 11 13 15 19 23 29 39 49 55 58 61 64 64 63 58 53 50 47 44 42 40 37 34 30 27 24 23 22 21 20 20 19 18 18 17 17 19 24 33 45 61 76 86 89 94 99 100 100 100 100 100 100 100 99
76 75 74 73 73 70 63 53 40 25 15 9 8 8 8 8 8 8 7 7 8 9 10 13 16 19 24 33 43 50 53 57 59 62 62 58 54 50 47 45 44 42 40 37 33 31 27 25 24 22 21 20 20 19 18 18 17 16 16 17 23 37 56 73 85 92 93 93 95 98 100 100 98 96
75 75 75 75 77 77 75 70 62 49 35 21 12 9 8 8 8 8 8 6 6 7 7 8 10 13 15 20 27 36 44 49 51 54 57 59 58 55 52 49 46 44 43 41 39 37 34 32 29 27 26 24 23 22 21 19 18 17 17 17 15 15 21 34 51 66 74 80 86 90 95 100 99 98
75 75 76 76 77 77 76 76 74 69 58 44 29 17 11 9 8 8 8 8 7 7 6 6 7 8 10 12 15 21 30 39 43 46 49 52 55 56 56 54 50 47 45 44 42 40 39 37 35 33 31 29 28 27 26 24 22 20 18 17 17 16 15 15 20 29 41 57 72 81 87 93 94 94
77 76 77 78 79 78 76 76 77 76 73 66 53 38 24 14 10 8 8 8 8 8 7 6 6 6 6 8 10 12 16 23 31 37 41 43 46 49 52 54 53 52 51 49 47 44 42 40 38 37 35 33 32 30 30 29 28 27 24 21 19 16 16 15 15 15 18 26 40 52 62 69 73 78
80 79 79 79 80 80 79 79 79 79 78 76 71 61 47 32 20 13 9 9 8 8 8 6 6 6 5 6 7 8 9 12 16 23 29 34 38 40 44 47 49 51 52 52 51 50 48 45 42 40 38 36 34 32 31 30 29 29 28 28 26 23 20 17 15 15 15 15 17 20 26 31 37 47
81 80 79 80 80 80 79 79 80 80 79 78 76 74 67 55 40 26 17 12 9 8 8 8 7 6 6 6 6 6 7 8 9 12 17 22 26 29 32 36 40 43 47 49 51 51 51 50 48 46 44 41 39 36 33 31 30 29 29 28 28 28 28 26 22 18 15 14 15 14 14 14 15 19
81 80 79 80 80 79 78 77 78 79 79 78 76 75 75 71 63 51 40 31 22 15 11 8 8 8 7 6 6 6 7 7 7 8 10 12 14 16 20 25 28 31 35 39 43 46 47 49 49 49 48 47 45 43 40 36 33 31 29 29 28 28 28 29 29 27 22 17 15 14 14 14 14 13
80 80 79 80 80 79 78 78 78 78 79 78 76 75 74 74 72 69 65 56 43 32 22 15 13 11 9 8 8 8 9 8 6 7 8 8 9 10 12 15 18 20 23 26 29 34 37 40 43 45 46 47 47 46 44 42 39 37 34 32 30 29 29 29 29 30 30 27 21 16 14 14 14 14
74 74 75 75 76 76 76 77 77 78 78 77 77 77 75 72 71 70 68 63 55 47 37 29 26 20 14 14 15 14 16 15 12 10 10 8 8 9 9 9 11 12 13 16 18 21 24 26 29 33 36 39 41 42 43 42 41 39 36 35 33 32 31 30 30 30 30 32 30 25 19 15 14 14
72 70 70 72 72 72 73 75 75 76 77 77 78 78 76 73 71 69 68 65 63 58 50 45 41 31 22 23 26 24 23 22 18 15 15 14 11 11 9 7 8 8 9 10 12 14 15 16 18 21 24 28 31 33 36 38 37 35 33 31 31 32 31 30 30 30 30 31 33 32 28 22 17 14
73 71 71 72 73 72 72 73 73 73 74 77 79 79 77 72 68 67 67 67 67 64 58 52 45 36 29 30 31 28 28 34 37 37 36 28 20 20 21 13 8 9 12 9 7 9 10 10 13 15 17 19 21 22 26 28 29 29 28 27 26 27 28 30 30 30 30 30 31 33 33 31 25 19
75 74 73 73 74 77 79 79 76 73 73 75 78 80 79 74 68 66 64 64 64 60 53 46 40 38 37 37 38 39 46 57 63 62 56 43 35 41 45 33 17 16 22 18 10 8 8 7 9 11 13 14 15 15 17 18 20 21 22 23 23 22 22 24 26 28 28 29 30 31 32 34 33 28
82 79 77 74 73 75 79 82 82 81 77 76 77 81 81 77 74 69 66 63 59 52 44 38 39 46 48 47 54 61 66 69 70 70 71 68 63 64 65 59 44 34 33 27 15 9 8 7 7 8 9 10 10 11 12 12 13 14 15 17 19 20 20 20 20 22 24 26 27 28 30 32 34 33
92 88 84 80 78 77 77 79 81 81 79 76 76 80 81 82 80 75 72 69 64 58 51 43 48 61 64 63 73 83 83 78 78 85 93 96 93 86 82 84 79 64 53 42 25 12 8 7 7 7 7 7 7 8 8 8 9 10 11 12 14 15 17 17 18 17 18 21 23 25 26 27 30 32
93 95 91 86 83 81 80 82 81 78 74 70 71 75 77 80 80 77 75 74 71 69 65 57 60 72 77 79 86 95 98 93 92 99 101 98 98 96 93 97 97 90 80 64 42 21 11 11 11 8 6 6 5 6 6 6 6 7 7 8 9 11 12 14 16 16 15 16 17 19 22 23 24 27
89 93 94 93 89 84 81 83 83 81 75 67 65 68 68 70 73 74 77 78 75 77 76 71 71 77 83 89 95 101 103 99 99 102 95 90 96 99 98 99 99 98 94 85 70 48 32 33 35 26 18 15 11 7 6 6 6 6 6 6 6 7 8 10 12 14 14 15 14 15 17 19 20 21
91 91 92 92 93 91 88 85 82 81 78 72 68 66 64 62 62 69 79 83 84 88 87 82 81 81 84 89 93 99 99 98 103 101 86 84 97 100 98 100 101 100 98 97 95 79 61 64 72 65 53 44 33 23 15 10 8 5 4 5 5 5 6 7 8 10 12 13 14 13 13 15 17 18
97 97 96 94 92 92 94 92 88 84 79 75 73 71 69 65 61 69 84 89 91 95 94 90 90 88 87 87 88 90 90 90 99 97 80 79 90 93 95 101 102 99 96 96 101 95 84 89 97 92 82 70 60 56 48 37 30 24 16 10 6 5 5 5 5 7 8 10 12 12 13 12 12 14
100 102 102 101 97 94 93 93 93 91 86 81 78 76 74 69 67 78 91 92 92 95 95 95 95 92 91 92 86 82 80 81 89 89 78 75 81 85 93 102 101 99 98 97 100 100 97 100 102 100 97 85 73 76 80 74 66 59 48 33 19 10 7 5 5 5 5 7 8 9 10 11 10 10
99 101 102 103 103 101 98 96 94 94 94 92 87 82 77 73 74 81 86 87 89 90 89 90 91 88 87 88 82 77 74 73 78 80 76 76 77 79 88 97 100 100 100 100 101 101 100 101 100 100 101 93 82 84 93 96 93 88 79 64 45 28 18 10 6 5 5 5 6 7 7 8 8 8
96 98 99 101 103 103 102 102 100 97 98 98 95 91 87 84 83 83 83 83 85 85 83 83 84 84 84 84 82 79 74 69 70 71 73 75 76 76 82 90 96 100 101 101 99 98 96 96 94 93 92 88 83 83 88 93 97 100 97 85 67 49 37 24 13 7 6 5 5 6 6 6 6 7
91 94 97 100 103 102 101 102 102 102 102 101 99 98 97 96 95 93 89 86 84 84 84 83 82 83 84 84 84 84 80 75 70 68 69 73 76 76 79 84 86 91 98 101 97 91 88 86 85 83 81 78 75 71 70 75 85 94 95 90 80 66 54 43 29 16 9 6 5 5 6 6 7 8
82 88 93 97 100 101 99 98 97 100 103 104 103 102 101 100 100 99 96 93 91 91 91 89 87 86 86 86 86 87 88 87 83 78 74 73 74 75 76 79 80 81 87 94 93 88 83 79 76 75 74 72 68 63 61 64 74 85 89 90 90 82 69 57 46 33 22 13 8 6 7 7 8 11
78 83 88 93 97 100 99 96 94 96 99 102 104 104 103 102 101 102 101 100 100 100 99 98 97 96 95 95 95 95 97 98 95 92 87 82 77 74 74 76 76 74 76 81 84 83 79 75 72 70 68 67 63 60 59 60 68 80 87 87 88 86 77 69 59 48 38 30 22 18 19 21 21 21
77 81 85 89 94 99 99 97 96 96 97 100 102 103 104 104 104 104 103 103 102 102 102 101 102 101 101 102 102 102 103 102 100 98 96 91 83 76 74 75 74 72 72 71 72 74 74 73 73 69 65 64 63 61 59 58 63 77 86 87 88 90 88 85 78 68 58 51 44 38 38 40 41 42
76 79 83 87 92 97 98 95 95 97 98 100 101 102 103 103 103 103 103 104 104 104 103 102 101 101 101 101 101 102 102 102 102 102 100 98 92 83 76 73 70 69 68 66 65 65 66 69 74 74 69 67 66 64 61 57 61 73 84 89 92 95 97 97 96 91 83 76 70 63 57 53 51 56
78 80 83 88 93 99 98 94 93 95 96 98 100 102 103 101 99 98 97 96 97 99 101 101 101 100 100 100 100 100 100 101 104 104 100 99 99 95 86 77 70 66 64 62 59 58 60 65 75 83 82 75 70 69 64 59 62 71 83 93 97 98 99 99 99 100 98 95 92 89 84 78 70 69
83 84 88 93 97 100 100 96 94 94 94 96 98 101 101 96 90 88 87 86 89 93 98 101 102 102 101 101 101 100 100 101 104 103 99 98 100 102 99 90 79 72 69 65 61 62 69 75 83 90 91 82 76 74 70 69 75 80 85 94 100 99 100 100 99 100 100 100 100 100 98 98 95 90
87 89 94 98 99 100 98 96 95 95 94 95 97 99 98 92 86 86 88 88 88 89 90 91 97 101 101 101 101 100 99 101 104 102 98 96 98 103 104 97 87 82 81 79 77 80 88 94 97 96 92 85 82 81 77 81 92 96 93 96 100 100 100 100 100 100 100 100 101 101 98 98 100 99
90 93 97 98 98 98 97 96 97 96 94 93 93 94 94 93 91 90 87 83 81 84 85 87 91 97 101 101 101 100 99 99 101 100 98 97 99 102 102 97 92 92 95 94 94 97 99 101 101 98 92 89 91 90 86 89 98 100 98 99 100 100 100 100 100 100 101 100 100 101 98 97 98 99
91 95 97 98 97 96 96 97 98 97 95 93 90 90 93 97 97 91 84 80 81 85 91 95 95 96 100 102 102 101 101 98 97 99 101 101 100 100 99 95 94 98 101 98 96 99 99 97 96 93 89 90 96 99 97 96 99 100 100 100 101 100 100 101 100 100 100 100 100 100 99 98 99 100
93 95 97 97 97 95 96 97 99 99 99 96 90 89 95 100 98 90 86 89 92 93 94 95 92 91 96 101 101 102 102 100 98 100 102 102 103 102 99 95 95 99 101 96 92 93 93 92 94 94 88 86 92 100 102 100 99 100 100 100 100 100 100 100 100 100 100 100 100 100 100 100 100 100
96 97 97 99 98 96 96 97 98 101 102 100 94 92 97 101 97 90 88 91 94 94 92 88 85 89 96 99 98 100 102 101 101 101 101 101 103 104 101 98 98 100 102 100 97 96 93 90 92 95 92 86 86 93 99 101 101 100 100 101 101 101 100 100 100 100 100 100 100 100 100 101 100 100
99 99 100 101 99 98 98 98 99 101 103 102 99 96 98 101 99 94 92 92 89 87 88 89 90 93 98 99 97 99 102 102 102 102 101 100 101 102 101 100 101 101 102 102 101 98 95 90 89 91 94 92 91 94 98 101 102 101 100 100 100 100 101 101 100 100 101 101 102 102 101 101 101 101
101 102 102 101 99 98 99 99 100 101 101 102 102 100 99 100 101 99 98 96 89 85 90 98 99 97 97 98 99 100 101 101 102 103 104 104 102 101 100 100 101 101 100 99 99 99 99 97 95 96 98 99 99 100 99 100 102 102 100 99 98 98 100 99 98 99 100 100 101 102 101 100 99 99
103 103 103 100 98 98 99 99 100 101 101 101 102 103 101 100 101 100 98 96 95 94 97 102 102 98 96 97 99 99 99 100 102 103 104 104 102 99 98 99 100 100 100 99 100 101 102 103 103 102 101 101 101 102 101 101 100 100 100 100 99 97 94 94 95 97 96 96 97 98 98 97 95 94
103 103 103 101 98 97 97 97 97 100 102 102 101 102 102 102 103 102 99 97 98 98 99 101 101 97 95 96 98 99 101 103 103 102 102 100 97 94 96 98 99 100 101 102 102 102 103 104 104 102 101 101 101 101 102 103 102 101 101 101 99 93 87 88 93 96 94 93 94 95 96 96 94 91
102 103 104 102 98 96 96 96 96 97 100 102 102 101 101 101 103 103 101 100 100 96 96 100 102 99 96 95 96 98 102 103 103 101 100 98 93 89 92 97 100 102 103 103 102 102 102 102 102 101 101 102 101 101 103 102 99 96 97 98 95 89 84 85 91 93 94 95 95 94 94 94 93 91
100 102 104 102 98 96 96 96 95 95 97 100 102 102 101 100 102 101 100 101 102 98 96 97 101 102 100 96 96 100 103 102 101 101 102 101 95 89 91 96 98 98 101 101 100 100 101 101 100 100 100 101 100 101 103 101 96 92 92 93 92 90 87 88 89 90 93 97 99 97 96 94 93 91
100 102 104 103 101 98 97 96 95 94 95 99 102 102 101 100 100 101 100 100 101 102 101 100 100 102 102 99 99 103 103 99 96 96 97 96 92 88 91 97 97 96 99 101 100 100 100 100 101 101 101 102 102 101 100 101 99 98 97 97 96 95 94 95 94 94 96 99 100 99 97 95 93 92
Wind_Speed
33 32 32 32 33 34 36 39 43 47 50 53 56 58 61 65 67 68 70 70 69 68 69 70 70 71 71 71 70 69 68 67 66 66 65 64 62 61 61 60 59 57 56 55 55 54 54 55 57 59 59 59 57 56 54 52 50 47 45 44 42 42 43 43 42 40 40 41 41 40 37 35 35 34
34 34 32 32 31 32 34 36 39 42 45 48 51 54 57 60 65 68 69 70 70 69 69 69 69 71 72 72 72 71 70 69 69 68 68 67 65 64 63 63 62 61 59 58 57 56 55 55 55 56 57 59 59 58 57 55 54 51 48 47 45 43 43 44 42 40 40 39 40 40 39 38 37 36
34 35 34 33 31 30 31 33 36 39 41 43 46 49 52 55 59 64 68 71 70 69 69 69 68 69 71 72 73 73 72 72 71 71 71 70 69 68 66 65 64 63 62 61 59 58 57 56 55 55 55 56 57 58 58 57 57 55 52 51 49 47 46 45 43 42 41 39 39 39 40 39 38 38
30 32 34 34 33 31 31 31 34 36 39 40 42 45 48 50 53 57 63 70 71 69 69 70 69 68 69 70 72 73 73 73 73 73 73 73 73 71 70 68 67 66 65 64 62 61 60 59 57 57 56 56 56 56 57 57 57 57 56 55 53 51 49 48 47 45 44 42 40 39 38 37 37 37
26 27 29 32 34 34 33 32 32 34 36 39 40 42 45 47 49 52 57 64 70 70 69 70 70 69 68 69 70 72 73 74 74 74 75 75 75 75 74 72 70 69 68 67 66 64 63 62 60 59 58 57 56 56 56 56 56 56 56 56 56 54 53 52 51 49 48 45 43 42 40 37 37 37
24 25 25 27 30 33 35 34 33 32 34 36 39 40 42 44 46 49 52 57 64 68 69 69 70 70 69 69 69 71 72 73 74 74 75 76 76 76 76 76 74 73 72 71 69 68 67 66 64 63 61 59 58 57 57 57 57 56 56 55 55 55 55 56 55 54 52 49 47 47 45 42 41 40
22 23 23 24 25 29 32 34 34 34 33 34 36 38 40 42 43 45 48 51 56 61 65 67 69 70 70 69 69 70 71 72 73 73 74 75 76 77 77 78 77 77 76 75 74 72 71 70 69 67 66 64 62 60 59 58 58 57 57 56 55 54 55 56 57 57 55 53 52 51 49 46 44 44
20 21 21 22 23 25 28 30 32 34 35 35 35 36 37 39 41 42 43 46 49 53 58 62 64 66 68 69 69 69 70 72 72 73 74 75 75 76 77 78 78 78 78 77 77 76 75 74 73 72 71 69 67 66 64 62 61 59 58 57 57 56 55 55 56 57 57 57 56 55 53 51 48 47
19 19 20 21 22 23 25 26 28 31 34 36 36 35 35 36 38 40 41 42 44 47 51 55 58 61 65 67 68 67 68 70 72 72 73 74 75 75 76 77 78 78 79 79 78 78 78 78 77 76 75 74 73 71 69 68 66 64 62 61 59 58 57 56 56 56 57 57 58 58 57 56 54 52
17 17 18 19 20 21 22 23 25 28 30 33 36 36 36 35 35 37 38 39 41 43 46 48 51 55 59 62 64 64 64 67 69 71 72 73 74 75 76 77 77 78 79 79 78 79 79 79 79 79 78 77 76 75 74 73 72 70 69 67 65 62 60 59 58 58 57 57 57 57 57 57 56 55
15 16 16 17 18 19 20 20 22 25 27 30 32 34 36 36 35 35 35 36 37 39 41 42 43 46 50 54 57 56 56 60 64 67 70 71 72 73 75 76 77 77 78 78 78 78 79 79 79 80 79 79 78 78 77 77 76 75 73 72 71 69 67 65 63 61 60 59 58 58 57 57 56 55
13 14 14 16 16 17 18 18 19 21 24 27 29 31 33 35 35 35 33 33 33 34 35 36 36 37 39 43 47 47 47 52 58 61 64 67 68 70 73 75 76 76 77 78 78 78 79 79 79 79 79 79 79 79 78 78 78 77 76 75 74 73 72 71 69 67 65 63 61 60 59 58 57 55
11 12 12 13 15 15 16 17 18 18 20 23 25 27 29 31 33 34 34 33 32 31 31 31 30 31 31 32 35 37 38 43 48 51 55 62 66 67 69 72 73 75 76 77 78 78 78 79 79 79 79 79 78 78 78 78 78 78 77 77 76 75 75 74 73 72 70 68 66 64 62 61 59 57
8 9 10 11 12 13 14 14 15 16 17 19 21 24 26 28 30 31 32 32 30 29 28 27 26 26 24 23 26 28 29 32 39 43 47 54 60 61 64 67 69 71 73 75 77 77 77 78 79 79 79 79 78 78 78 77 77 77 77 77 77 76 76 76 75 74 73 72 71 69 67 65 62 61
8 8 8 9 10 10 11 11 12 13 14 15 17 20 23 25 26 27 28 28 28 28 26 24 23 22 20 19 21 24 24 27 32 36 38 43 48 52 56 62 64 64 66 71 75 77 77 78 79 79 79 79 78 78 77 77 77 77 77 77 77 77 77 77 76 76 75 74 74 73 72 70 67 65
8 7 7 6 6 6 6 7 9 10 11 12 14 16 20 22 23 24 25 25 25 25 24 22 21 20 18 18 19 21 21 23 26 28 29 33 38 40 44 52 58 56 55 61 70 75 77 77 78 80 80 79 79 78 78 78 78 78 77 77 77 77 77 78 77 77 76 75 75 75 75 74 72 69
9 8 7 7 6 5 4 5 6 7 8 9 11 13 16 19 20 21 22 22 23 23 22 21 19 17 16 16 17 18 19 20 22 23 24 26 30 31 32 38 46 47 46 51 61 70 75 74 76 79 80 79 80 80 79 79 79 79 79 78 78 77 77 78 78 78 77 76 76 76 76 76 76 74
10 10 10 10 9 7 6 6 5 5 6 7 8 10 12 14 16 18 19 20 21 21 20 18 15 14 14 13 14 16 18 19 20 20 20 21 23 24 23 25 31 36 38 42 50 61 68 69 70 76 79 79 80 81 81 81 81 81 81 80 80 79 78 78 78 78 78 77 77 77 77 77 77 77
10 10 11 11 11 11 9 8 7 6 6 6 6 7 8 9 12 14 15 16 18 18 19 17 14 12 12 12 12 14 16 17 17 17 18 19 19 20 18 18 21 26 29 33 39 49 56 58 61 68 72 73 75 78 79 80 81 81 82 82 82 81 81 80 79 78 78 78 77 77 77 78 77 78
10 11 11 11 11 12 11 10 10 9 8 7 7 8 9 10 11 11 10 12 13 14 15 16 14 12 12 13 13 13 13 13 15 16 18 20 19 18 17 16 18 23 25 26 28 35 41 43 47 53 58 62 65 69 72 75 77 79 80 82 83 83 83 82 81 80 79 79 78 78 78 78 78 78
10 10 11 12 12 12 12 12 12 12 11 9 9 10 10 10 11 10 9 10 10 10 11 14 14 14 15 15 15 15 14 13 13 16 19 20 19 19 17 16 17 21 21 20 21 25 28 29 32 36 41 47 52 56 61 65 69 72 75 77 80 82 83 84 83 83 82 81 80 79 79 79 79 79
10 10 11 12 13 13 13 15 15 15 14 12 11 11 12 11 10 9 9 9 9 10 11 12 14 15 17 18 18 18 18 16 16 19 21 20 19 19 17 15 16 16 14 14 17 21 22 22 24 26 28 33 38 41 46 51 56 61 66 70 74 77 80 82 83 84 84 84 83 82 81 80 80 80
9 10 11 12 12 12 14 16 18 18 18 15 13 13 15 14 11 8 10 11 11 12 13 13 14 16 18 20 21 22 21 20 20 21 22 22 21 19 17 16 16 15 13 12 14 18 19 19 20 21 23 26 27 28 32 37 42 47 53 59 65 70 74 77 80 82 83 84 84 84 83 82 82 82
7 8 10 12 13 13 14 16 18 20 21 20 17 17 18 17 13 12 14 16 16 16 17 17 18 19 20 22 24 25 25 24 23 22 23 24 24 21 19 18 17 17 15 13 13 16 19 19 18 19 21 23 23 23 25 27 31 36 41 47 53 59 65 70 74 78 80 82 83 83 83 83 83 84
7 7 8 10 13 14 15 16 18 19 21 23 23 22 20 18 15 16 19 20 20 21 21 21 22 23 23 25 26 27 27 27 25 24 24 25 26 25 23 20 19 18 17 15 14 16 18 19 19 18 19 20 20 21 21 21 22 26 30 37 43 48 54 60 66 71 75 77 79 80 81 82 82 83
9 8 9 10 12 14 14 16 18 19 20 22 24 25 23 21 20 20 22 23 24 26 26 25 26 26 26 27 27 28 29 29 28 26 25 26 27 27 26 24 22 21 19 16 16 17 18 18 17 17 17 18 18 19 19 18 18 20 23 28 34 40 45 50 55 61 66 70 73 75 76 77 79 80
10 10 10 11 13 15 15 14 17 19 20 22 23 24 24 25 25 24 24 25 25 27 28 29 30 29 29 29 28 28 28 29 29 28 27 27 28 29 29 27 25 24 22 19 19 20 20 18 17 17 18 18 18 18 18 17 18 19 21 24 28 33 39 43 47 51 56 60 64 67 69 71 73 74
12 12 12 11 13 15 16 15 15 17 19 21 22 23 24 25 25 26 26 26 26 27 28 30 31 31 31 31 30 29 28 28 28 29 30 30 31 31 31 30 29 28 26 23 22 23 22 20 19 19 19 19 19 19 19 18 19 20 20 21 24 28 34 39 42 44 46 50 55 58 60 63 66 68
13 13 13 12 13 15 16 17 16 15 17 19 21 22 24 25 25 26 26 27 27 28 29 30 30 30 30 30 30 29 29 29 30 31 32 32 32 32 32 32 31 30 29 26 25 25 25 23 22 21 21 21 21 21 21 21 21 21 21 20 21 24 28 34 39 41 41 43 46 48 51 54 57 60
16 15 15 14 14 15 16 17 16 15 16 18 20 21 23 24 26 26 27 28 29 30 30 31 31 31 30 28 28 28 29 31 33 34 33 33 33 32 32 32 33 32 31 30 28 27 26 25 24 23 23 23 22 22 22 23 23 23 22 21 20 21 22 26 32 38 41 41 41 43 45 47 48 50
17 16 16 15 15 16 17 17 17 16 16 17 19 20 21 23 24 25 27 28 29 30 31 31 32 32 30 28 28 29 30 31 32 33 33 33 32 32 32 33 34 33 33 32 31 30 28 27 26 26 25 24 23 23 23 24 24 24 23 21 18 17 17 18 21 28 34 38 39 40 41 42 44 44
18 17 17 17 17 17 18 18 17 17 16 17 17 19 20 21 22 23 24 25 26 27 28 29 30 30 29 28 28 28 30 31 30 31 32 32 31 30 30 32 33 33 33 33 33 31 29 28 28 27 25 24 24 24 25 26 26 25 24 22 18 15 14 14 16 19 25 31 34 36 36 38 41 43
19 18 18 18 18 18 18 18 17 17 17 17 17 18 19 19 20 21 20 20 21 23 24 25 26 27 28 29 29 27 27 29 29 28 29 30 29 28 28 29 30 30 31 32 31 29 28 27 27 27 25 24 23 24 26 26 26 26 24 21 18 14 13 14 17 18 21 26 32 35 37 38 39 41
19 18 18 18 18 18 18 17 16 16 17 17 17 17 17 17 17 16 16 16 18 19 20 20 20 23 25 27 28 27 26 26 27 27 26 27 28 28 27 26 25 25 26 27 26 25 25 24 25 26 25 23 23 24 26 26 25 23 22 20 18 15 13 15 19 21 22 24 29 34 37 39 38 37
19 18 18 18 18 18 17 17 16 15 16 16 16 16 15 13 12 12 13 14 14 15 15 15 16 18 21 22 23 24 24 25 25 25 25 25 27 27 26 24 22 20 20 21 20 21 21 22 22 23 23 22 23 24 25 25 24 21 19 18 18 17 14 14 17 20 22 24 27 30 34 38 38 36
19 18 18 18 18 18 17 16 16 15 15 16 15 14 13 12 11 11 11 10 10 11 13 14 13 13 15 17 17 18 20 22 24 24 23 25 26 26 24 23 21 19 19 18 18 19 19 19 20 21 21 21 22 23 22 22 21 20 19 18 18 18 18 17 16 17 18 20 23 25 29 34 36 35
19 19 19 18 18 18 17 17 17 16 16 16 14 13 12 11 10 9 8 7 6 8 9 10 10 10 10 11 12 14 17 20 22 21 22 23 25 25 23 22 21 20 19 20 19 19 19 19 20 20 19 18 20 20 20 19 18 18 18 19 19 18 18 18 18 18 18 18 19 20 23 26 29 29
20 20 19 18 18 17 17 17 17 17 16 16 14 12 11 10 10 10 9 7 5 6 6 6 7 8 9 10 11 13 15 17 18 19 21 23 24 24 24 23 21 20 20 21 21 20 20 21 21 21 19 18 18 18 19 20 19 17 17 17 17 17 17 16 17 18 19 19 19 19 20 21 22 23
21 20 19 19 18 17 16 16 17 16 16 16 14 12 11 11 11 11 10 8 7 6 6 6 8 9 9 10 12 13 13 15 17 19 20 23 24 24 24 23 21 21 21 22 22 21 21 22 22 21 20 19 19 18 19 20 20 19 18 18 18 18 18 18 18 18 18 18 18 18 18 18 19 19
22 20 20 19 18 17 16 16 16 16 16 16 15 14 12 12 13 14 13 11 9 8 6 7 9 10 11 10 12 13 14 15 16 17 19 21 22 22 22 22 22 23 23 23 23 22 22 21 21 21 21 21 21 20 20 21 20 19 19 20 21 21 21 21 21 20 20 19 19 19 19 19 19 19
22 21 20 19 17 16 16 16 16 16 16 16 16 16 14 13 13 14 15 14 12 10 8 7 9 11 12 12 13 14 14 14 14 15 17 18 20 20 20 20 21 22 23 24 24 23 23 22 21 21 22 23 24 24 24 24 23 21 19 20 21 21 21 21 21 21 21 21 21 21 21 21 22 21
22 21 20 18 17 16 16 16 16 16 16 17 17 17 16 15 13 14 15 16 15 13 11 9 9 10 13 14 14 14 14 14 15 15 16 17 17 17 17 17 18 19 21 22 24 24 23 23 23 22 21 23 24 25 25 26 26 24 22 22 23 22 22 20 20 21 22 22 22 23 23 23 23 23
22 22 20 18 17 16 16 16 16 16 16 17 17 18 18 17 16 14 14 16 17 17 15 12 11 12 14 16 16 15 15 15 16 17 18 18 17 16 16 16 17 17 19 21 23 23 23 23 22 20 19 20 20 21 23 26 27 26 25 25 25 24 23 21 20 21 21 22 22 23 24 24 24 24
23 23 21 19 18 16 16 16 16 16 16 16 17 18 19 19 19 17 15 15 17 19 18 16 15 15 16 17 17 17 16 16 17 18 19 18 17 16 16 16 16 17 18 19 21 21 22 23 21 19 19 20 19 19 21 24 25 25 25 25 24 24 23 22 21 21 22 22 23 23 24 24 25 24
24 23 22 20 18 17 17 17 17 17 16 16 16 17 18 20 21 19 17 16 17 18 19 19 18 18 19 19 19 18 18 18 18 19 18 18 18 17 17 18 18 17 16 17 18 19 21 22 22 23 23 23 22 22 23 24 25 26 26 26 26 25 25 24 24 24 24 24 23 24 24 24 24 24
Wind_Direction
265 264 263 261 257 253 249 246 245 245 246 245 244 243 242 242 240 237 233 230 227 227 228 230 231 232 233 233 233 233 231 230 230 230 229 228 225 224 223 222 222 222 221 222 222 222 223 223 224 225 226 227 229 229 230 228 227 227 226 224 225 224 222 224 224 223 223 224 223 220 218 218 225 232
262 261 261 261 258 254 251 247 245 245 245 244 245 244 242 242 242 241 237 233 229 228 228 228 229 231 233 233 233 233 233 233 233 233 233 232 230 228 226 225 223 223 223 222 223 223 224 224 224 225 225 227 228 230 230 230 230 230 229 228 227 226 225 225 226 227 227 227 224 222 222 220 221 226
259 258 258 259 258 256 253 249 246 245 245 244 244 244 244 242 242 242 241 237 232 231 230 228 228 229 231 233 233 234 234 234 234 234 234 235 234 233 231 229 226 225 224 224 224 224 225 225 226 226 227 227 228 229 230 231 232 232 232 231 231 230 228 227 227 228 228 229 227 225 225 226 224 225
259 257 256 256 256 256 253 251 248 246 245 244 244 244 244 244 243 242 242 239 236 234 233 231 229 228 229 231 233 233 233 234 235 235 235 235 236 236 235 233 231 229 227 226 225 225 225 226 227 228 228 229 229 229 230 231 232 233 233 233 234 233 231 229 228 228 229 230 228 225 226 228 226 226
261 259 257 255 254 254 252 250 248 247 246 245 244 244 244 245 244 243 242 240 238 238 236 233 232 230 228 228 231 233 233 233 234 235 235 236 236 237 237 237 236 234 232 229 228 227 226 226 227 228 229 230 231 231 231 231 232 232 233 234 235 235 234 232 231 231 232 232 230 228 229 229 227 227
262 260 259 257 255 254 252 250 248 246 246 245 245 245 244 244 245 245 245 242 239 239 239 236 235 232 230 228 228 231 233 233 233 234 235 236 236 237 237 238 238 238 237 235 232 230 229 229 228 229 229 230 231 232 233 233 233 233 233 234 235 236 235 235 234 235 236 235 233 232 232 231 230 230
263 262 260 259 257 255 253 251 248 246 245 245 244 245 245 245 245 245 246 245 243 242 240 239 238 236 233 231 228 229 231 232 233 233 234 235 235 236 237 238 239 239 239 239 237 235 234 233 232 231 231 231 232 233 234 235 235 235 235 234 235 235 236 236 237 238 239 237 236 235 235 232 231 233
265 263 261 259 257 256 256 253 251 248 245 243 243 243 244 245 245 245 246 247 247 246 242 240 241 240 237 235 232 230 230 231 232 233 234 234 234 235 236 237 238 239 240 240 240 239 238 237 236 235 234 233 233 233 234 235 236 237 237 237 237 237 237 237 237 238 239 238 237 237 237 235 234 234
271 267 262 260 259 259 259 257 254 251 248 245 243 242 242 243 244 244 244 245 247 248 246 242 241 242 240 238 236 234 232 231 231 232 233 234 234 234 235 235 236 238 239 240 241 241 241 240 239 239 238 237 236 236 236 236 237 238 239 239 240 239 239 239 239 239 239 239 239 239 239 239 238 238
278 274 267 261 260 261 262 261 258 255 251 248 245 243 242 242 243 244 244 244 246 248 248 246 243 242 242 241 240 238 237 234 233 232 232 233 234 235 235 235 235 236 236 237 239 240 241 241 241 241 241 240 240 239 239 238 238 239 239 240 241 241 241 242 242 241 240 240 240 240 240 240 240 240
284 280 273 266 262 262 263 264 262 258 254 249 245 243 242 242 243 244 244 244 245 247 249 249 248 245 243 243 243 242 242 240 236 234 232 233 234 235 236 236 236 236 235 235 236 238 239 240 241 241 241 242 242 241 241 241 241 240 241 241 241 242 242 243 243 244 244 243 242 241 241 241 241 240
294 286 277 270 266 265 266 266 266 262 257 252 247 242 240 240 241 244 245 245 246 246 247 248 249 247 243 243 244 244 244 243 241 238 236 235 234 234 235 236 236 237 237 236 235 236 237 238 239 240 241 241 242 242 242 242 242 242 242 242 243 243 243 243 243 243 244 245 245 244 243 242 242 241
304 295 285 276 271 270 271 270 268 265 261 255 249 244 240 238 238 240 242 243 244 245 246 245 245 245 242 239 240 240 241 242 241 240 239 238 235 235 235 236 236 237 237 238 237 236 236 237 238 239 239 240 240 241 241 242 242 243 243 243 243 243 243 243 243 242 243 244 245 246 245 245 244 242
311 303 293 284 278 275 273 271 269 266 263 257 250 245 241 239 238 238 239 241 242 243 244 243 243 242 237 230 230 233 234 235 236 236 239 240 238 237 237 236 237 238 238 238 238 237 236 236 237 237 238 238 239 239 239 240 241 241 242 243 243 243 243 243 244 243 242 242 243 244 245 246 246 245
312 308 296 288 284 280 275 272 270 267 265 260 251 243 240 239 239 239 239 239 240 241 242 242 242 239 232 225 226 228 228 229 231 233 235 238 238 238 238 237 237 239 240 240 239 238 237 238 237 237 237 238 238 239 239 239 239 240 240 240 241 242 242 243 243 243 243 242 242 242 243 245 246 246
309 309 303 298 298 294 286 281 276 270 266 262 254 245 240 238 237 236 236 235 236 238 238 237 237 235 228 223 223 225 224 225 228 228 228 231 235 236 238 238 237 238 241 242 241 239 238 239 239 238 238 238 239 239 239 239 239 239 239 239 239 240 240 241 242 242 242 243 242 242 242 243 244 245
305 304 301 298 298 298 297 295 290 282 273 265 257 249 244 240 238 236 234 232 231 232 234 233 231 230 225 217 215 218 219 218 219 222 223 226 229 231 235 238 238 237 239 242 243 241 239 239 240 240 240 240 240 240 240 240 240 239 239 239 238 238 239 239 240 241 242 242 242 242 242 242 242 243
303 304 303 300 299 297 291 290 291 289 283 272 259 252 247 243 241 238 234 232 230 230 232 230 224 223 221 214 209 212 212 210 212 216 218 221 224 227 232 239 240 240 241 242 243 243 241 241 242 241 240 241 242 242 242 242 241 241 240 240 239 239 239 239 239 239 240 241 241 242 242 242 242 242
296 299 300 300 300 301 299 294 289 283 276 265 248 237 234 233 235 234 232 232 232 232 233 229 221 216 217 210 201 202 208 210 212 216 218 219 222 225 232 243 248 249 248 246 245 244 243 243 244 243 241 242 242 243 243 243 243 243 243 242 241 240 240 239 239 239 239 239 240 240 241 242 242 242
290 289 290 290 289 290 291 289 287 283 274 261 240 223 214 215 219 220 220 225 229 230 230 228 220 207 204 204 200 202 213 219 220 225 224 219 223 233 243 252 253 252 252 249 244 242 242 243 245 244 243 244 244 243 243 244 245 245 245 244 243 242 241 240 239 239 239 238 238 239 239 240 242 242
289 284 283 282 280 280 280 278 279 278 274 265 250 236 228 224 215 204 206 217 222 227 227 224 221 210 204 209 214 217 222 223 227 234 228 220 229 246 254 256 251 250 252 250 243 239 237 238 242 242 242 243 245 244 244 244 245 245 246 246 245 244 242 241 240 239 239 239 238 238 238 238 239 241
283 284 282 279 277 275 273 272 272 273 272 267 258 249 247 245 227 200 203 218 222 229 231 226 225 223 217 219 224 228 228 226 231 236 228 224 236 248 252 252 245 241 244 246 245 241 234 234 241 240 237 238 242 244 244 244 245 245 246 246 246 245 244 243 242 240 239 239 238 238 238 238 238 239
277 281 283 283 281 274 265 263 264 267 268 267 261 253 250 253 243 215 217 228 229 232 234 230 230 231 229 229 231 232 231 229 233 235 230 228 236 241 244 244 235 229 228 232 242 241 234 235 242 242 240 239 239 241 243 243 243 244 245 245 246 246 245 244 243 242 240 240 239 238 238 238 238 238
278 283 283 283 283 278 269 262 260 262 265 267 265 257 251 251 246 232 231 235 234 234 236 234 234 233 233 235 236 236 234 232 233 234 232 232 235 238 242 242 233 226 221 216 226 232 230 232 237 239 242 242 239 239 242 244 244 245 244 244 245 245 245 245 244 243 242 241 240 239 239 238 238 238
283 291 294 292 287 282 276 270 265 262 263 265 266 263 260 256 248 238 236 238 238 239 239 238 237 237 236 238 240 239 238 236 236 235 234 235 236 238 242 245 238 227 219 217 224 226 224 226 230 232 237 239 236 236 238 241 246 249 248 246 245 244 245 245 244 244 243 242 241 240 240 239 239 239
283 288 295 300 298 291 283 273 267 264 261 261 263 266 267 266 259 250 244 241 240 242 243 242 242 242 241 243 244 244 243 240 238 237 236 237 238 238 241 245 241 230 227 233 238 235 231 232 235 237 239 238 237 238 239 240 245 252 255 254 249 245 244 244 244 243 242 242 242 241 240 240 240 240
281 285 289 295 298 298 293 282 271 264 260 258 260 263 264 264 262 259 254 249 245 245 246 246 246 245 245 245 245 246 246 245 242 240 237 238 239 239 239 242 241 237 235 239 241 242 243 244 244 245 246 245 246 249 250 250 251 254 257 258 257 251 246 243 242 241 240 240 240 240 240 240 240 240
278 282 286 290 293 296 296 291 280 268 260 258 258 259 259 260 260 260 259 258 255 252 250 250 250 250 249 248 248 247 248 249 247 244 240 237 237 237 238 239 241 241 241 241 241 244 247 248 248 250 251 252 255 258 260 260 259 259 258 261 263 258 250 244 241 240 238 237 237 237 237 238 239 240
282 284 286 288 291 293 293 292 288 276 265 259 255 254 255 257 258 258 259 259 259 257 256 255 254 253 251 250 250 249 248 247 245 244 241 238 236 235 236 237 239 241 243 244 244 246 248 251 252 253 254 256 259 262 264 264 262 261 261 264 268 266 256 246 240 238 237 236 234 234 234 235 237 239
287 288 288 288 290 291 291 291 289 284 275 266 260 256 254 254 255 257 257 258 258 258 258 257 256 255 252 250 249 247 245 243 241 241 241 239 237 236 235 236 237 239 243 246 247 248 251 253 254 253 254 257 258 260 263 263 262 262 261 264 273 275 263 248 238 235 235 235 235 234 233 233 235 237
288 290 290 290 290 290 289 288 288 287 282 275 268 263 260 257 257 257 257 258 259 259 260 260 259 258 254 250 247 245 243 241 240 240 240 239 239 238 236 237 237 238 241 244 247 249 252 254 255 253 253 255 256 257 260 261 259 259 258 260 272 279 267 250 238 232 231 234 236 236 235 233 231 231
288 290 290 291 290 288 287 286 286 286 286 281 274 268 265 264 262 261 261 261 262 261 261 261 261 259 256 250 246 245 243 240 239 240 239 237 238 239 238 238 238 238 240 242 245 248 250 252 253 252 252 253 253 253 255 257 256 255 253 255 265 277 269 252 242 234 229 229 232 233 233 231 229 228
286 288 290 290 287 284 283 282 283 284 287 287 280 273 270 270 267 265 263 263 263 263 262 261 259 256 254 251 248 245 243 239 237 238 237 235 234 236 238 238 237 236 237 240 242 244 245 246 248 250 250 250 249 248 249 252 252 252 252 252 257 266 263 246 237 231 226 224 225 227 228 228 228 227
281 284 287 286 284 281 279 279 280 282 287 288 283 276 274 273 268 264 263 264 266 266 266 266 261 253 248 246 243 242 242 239 236 236 235 231 229 231 235 237 235 232 232 235 236 236 235 234 238 244 247 246 245 245 245 246 246 248 251 253 252 254 253 242 234 229 225 223 225 227 228 229 230 229
275 279 281 282 281 279 277 278 279 282 286 288 285 279 275 270 265 262 264 266 268 267 266 268 266 256 245 238 235 236 237 236 233 232 230 226 224 226 230 232 230 226 226 228 227 225 225 227 232 239 244 244 242 242 243 242 241 241 244 246 246 245 242 237 233 232 230 229 229 230 231 231 234 236
270 273 276 278 278 278 277 278 279 282 285 288 288 282 272 265 263 263 265 268 272 270 266 265 264 254 239 229 227 229 230 228 227 226 225 221 219 222 226 225 224 223 223 222 220 219 221 226 232 238 242 240 237 236 237 236 236 235 233 233 237 238 236 233 231 229 227 226 227 227 227 227 229 234
266 268 271 274 276 277 277 277 277 279 281 285 290 284 269 258 255 253 254 259 271 276 271 260 248 235 223 217 217 220 223 223 222 221 219 216 216 220 222 222 224 226 224 220 218 220 222 225 229 234 238 237 231 228 226 225 226 226 225 226 232 237 236 233 233 231 227 221 218 216 215 214 215 218
262 264 267 270 273 275 277 276 275 274 274 277 284 285 269 252 242 238 239 241 248 258 257 242 228 221 219 218 217 218 220 219 216 214 213 213 215 219 221 223 227 228 224 220 221 224 226 226 226 229 234 237 235 227 220 218 219 219 220 222 230 237 238 234 232 232 231 228 221 216 213 209 206 205
257 260 263 266 269 272 275 275 274 272 269 269 273 277 269 251 237 232 234 237 238 233 225 220 221 222 225 224 220 215 210 206 205 208 211 213 216 219 220 222 225 225 223 223 225 228 229 228 229 231 235 239 240 232 220 215 219 225 229 231 233 236 239 240 238 236 236 234 231 228 225 221 217 215
252 256 259 262 265 269 272 274 274 270 267 265 265 266 266 256 240 230 229 234 236 232 227 224 221 219 219 218 212 204 197 193 197 203 208 212 215 217 217 219 222 224 226 228 230 232 232 231 233 237 239 239 239 235 223 214 214 222 231 237 238 237 238 241 243 243 243 241 239 239 237 235 233 232
247 251 255 259 264 267 270 272 273 271 268 265 261 259 258 255 245 234 229 230 230 228 228 228 222 213 205 200 198 195 193 193 195 198 202 205 209 212 214 217 222 225 227 228 229 231 232 234 238 244 244 240 238 236 227 218 214 216 222 230 237 239 239 241 244 245 245 244 243 243 242 241 240 238
243 247 252 257 262 266 269 271 273 273 271 266 261 256 250 248 245 238 231 227 224 221 219 218 217 209 198 192 192 194 194 194 194 196 202 207 207 208 212 217 222 226 227 227 228 230 233 238 244 248 245 238 236 235 230 221 217 218 223 229 237 241 242 240 240 241 241 242 242 243 243 242 242 240
242 244 247 253 259 264 269 272 274 274 273 269 263 256 247 240 238 238 233 227 222 218 214 209 208 206 202 199 197 196 198 200 199 202 210 216 216 214 216 222 228 231 230 228 229 231 234 238 242 241 235 232 233 231 225 219 216 219 225 232 238 243 244 241 238 239 241 241 241 241 241 242 242 241
241 242 244 250 256 262 270 275 276 276 275 273 267 257 245 236 232 233 233 229 223 218 215 211 207 207 208 209 205 202 205 208 208 210 217 224 226 225 228 235 240 240 235 232 232 233 232 234 235 230 225 225 227 224 220 218 220 225 229 235 239 242 243 242 241 243 247 247 244 241 239 240 241 241
241 243 245 249 255 262 270 275 278 278 278 276 271 260 244 233 228 227 228 228 224 219 216 215 213 209 210 214 213 209 210 213 215 217 221 227 230 234 238 243 247 246 239 232 231 231 232 232 230 226 223 223 223 221 219 220 222 225 229 234 238 241 244 246 248 249 248 245 241 239 238 239 239 239